Farmingdale, NY

1:19 PM EDT on March 25, 2017 (GMT -0400)
Republic

Weather History for KFRG - March, 2014

Change the Weather History Date:

Wednesday, March 26, 2014

  Actual Average Record
Temperature  
Mean Temperature 31 °F -  
Max Temperature 37 °F 50 °F 60 °F (2008)
Min Temperature 24 °F 35 °F 24 °F (2014)
Degree Days  
Heating Degree Days 34    
Moisture  
Dew Point 10 °F    
Average Humidity 45    
Maximum Humidity 78    
Minimum Humidity 23    
Precipitation  
Precipitation 0.00 in - - ()
Sea Level Pressure  
Sea Level Pressure 29.86 in    
Wind  
Wind Speed 17 mph (NNW)    
Max Wind Speed 24 mph    
Max Gust Speed 40 mph    
Visibility 9 miles    
Events Snow    
Averages and records for this station are not official NWS values.
T = Trace of Precipitation, MM = Missing Value Source: NWS Daily Summary

Daily Weather History Graph

Daily Weather History Graph

Search for Another Location

Airport or City:

Trip Planner

Search our weather history database for the weather conditions in past years. The results will help you decide how hot, cold, wet, or windy it might be!

Date:

Astronomy

Mar. 26, 2014 Rise Set
Actual Time 6:47 AM EDT 7:12 PM EDT
Civil Twilight 6:19 AM EDT 7:39 PM EDT
Nautical Twilight 5:47 AM EDT 8:11 PM EDT
Astronomical Twilight 5:14 AM EDT 8:45 PM EDT
Moon 3:55 AM EDT (3/26) 2:46 PM EDT (3/26)
Length of Visible Light 13h 19m
Length of Day
12h 24m
Waning Crescent, 22% of the Moon is Illuminated
Mar 26
Waning Crescent
Mar 30
New
Apr 7
First Quarter
Apr 15
Full
Apr 22
Last Quarter

Hourly Weather History & Observations

Time (EDT) Temp. Windchill Dew Point Humidity Pressure Visibility Wind Dir Wind Speed Gust Speed Precip Events Conditions
12:53 AM 32.0 °F 20.5 °F 19.0 °F 59% 29.81 in 10.0 mi NNE 18.4 mph 24.2 mph N/A   Overcast
1:53 AM 32.0 °F 21.2 °F 16.0 °F 52% 29.81 in 10.0 mi NNE 16.1 mph 21.9 mph N/A   Overcast
2:50 AM 28.4 °F 16.2 °F 19.4 °F 69% 29.79 in 4.0 mi NNE 17.3 mph 25.3 mph 0.00 in Snow Light Snow
2:53 AM 28.9 °F 17.7 °F 19.9 °F 69% 29.79 in 4.0 mi NNE 15.0 mph 25.3 mph 0.00 in Snow Light Snow
3:24 AM 28.4 °F 18.0 °F 21.2 °F 74% 29.77 in 2.5 mi NNE 12.7 mph 23.0 mph 0.00 in Snow Light Snow
3:31 AM 28.4 °F 16.2 °F 21.2 °F 74% 29.77 in 3.0 mi North 17.3 mph 21.9 mph 0.00 in Snow Light Snow
3:53 AM 28.9 °F 18.6 °F 23.0 °F 78% 29.76 in 4.0 mi North 12.7 mph - 0.00 in Snow Light Snow
4:53 AM 30.0 °F 17.5 °F 19.9 °F 66% 29.74 in 10.0 mi North 19.6 mph 25.3 mph 0.00 in   Overcast
5:53 AM 30.9 °F 19.8 °F 17.1 °F 57% 29.72 in 10.0 mi North 16.1 mph 25.3 mph N/A   Overcast
6:53 AM 32.0 °F 23.6 °F 14.0 °F 48% 29.73 in 10.0 mi North 10.4 mph 23.0 mph N/A   Overcast
7:53 AM 32.0 °F 20.8 °F 15.1 °F 50% 29.75 in 10.0 mi NNW 17.3 mph 24.2 mph N/A   Partly Cloudy
8:53 AM 32.0 °F 19.5 °F 16.0 °F 52% 29.77 in 10.0 mi North 21.9 mph 31.1 mph N/A   Clear
9:53 AM 32.0 °F 21.2 °F 16.0 °F 52% 29.80 in 10.0 mi NNW 16.1 mph 35.7 mph N/A   Mostly Cloudy
10:53 AM 32.0 °F 18.9 °F 9.0 °F 38% 29.80 in 10.0 mi NNW 24.2 mph 40.3 mph N/A   Clear
11:53 AM 35.1 °F 23.3 °F 3.9 °F 27% 29.81 in 10.0 mi NNW 23.0 mph 38.0 mph N/A   Clear
12:53 PM 36.0 °F 24.7 °F 3.9 °F 26% 29.81 in 10.0 mi NW 21.9 mph 32.2 mph N/A   Clear
1:53 PM 37.0 °F 25.9 °F 6.1 °F 28% 29.82 in 10.0 mi NW 23.0 mph 33.4 mph N/A   Clear
2:53 PM 35.1 °F 23.3 °F 3.9 °F 27% 29.83 in 10.0 mi NNW 23.0 mph 35.7 mph N/A   Clear
3:53 PM 36.0 °F 24.7 °F 3.0 °F 25% 29.86 in 10.0 mi NW 21.9 mph 33.4 mph N/A   Clear
4:53 PM 33.1 °F 21.2 °F 1.0 °F 26% 29.88 in 10.0 mi NW 20.7 mph 35.7 mph N/A   Clear
5:53 PM 32.0 °F 21.2 °F -0.0 °F 26% 29.93 in 10.0 mi NW 16.1 mph 35.7 mph N/A   Clear
6:53 PM 30.9 °F 19.4 °F -2.9 °F 23% 29.98 in 10.0 mi NNW 17.3 mph 33.4 mph N/A   Clear
7:53 PM 28.9 °F 18.6 °F -0.9 °F 28% 30.04 in 10.0 mi NW 12.7 mph 28.8 mph N/A   Clear
8:53 PM 28.0 °F 17.0 °F -0.9 °F 29% 30.08 in 10.0 mi NW 13.8 mph 31.1 mph N/A   Clear
9:53 PM 26.1 °F 14.0 °F -0.0 °F 32% 30.13 in 10.0 mi NW 15.0 mph 24.2 mph N/A   Clear
10:53 PM 25.0 °F 11.7 °F 1.0 °F 36% 30.17 in 10.0 mi NNW 17.3 mph 27.6 mph N/A   Clear
11:53 PM 24.1 °F 13.1 °F 1.9 °F 38% 30.20 in 10.0 mi NNW 11.5 mph 18.4 mph N/A   Clear